User: anonymous   Login
Location: Unspecified
(0.0000°N, 0.0000°E)
Time: 00:48:33
(UTC+02:00)
Language:

IUS-9 SRM-1 - Orbit

View from above orbital plane
View from above orbital plane
View from above satellite
View from above satellite

Ground track
Ground track

The orbit data is extracted from the following two-line orbital elements,

1 19884U 89021C   17205.45439018 +.00009976 +00000-0 +59201-3 0  9990
2 19884 026.4675 332.7776 5971007 358.1348 000.2971 04.13998237335543
Epoch (UTC): 24 July 2017 10:54:19
Eccentricity: 0.5971007
inclination: 26.4675°
perigee height: 223 km
apogee height: 19787 km
right ascension of ascending node: 332.7776°
argument of perigee: 358.1348°
revolutions per day: 4.13998237
mean anomaly at epoch: 0.2971°
orbit number at epoch: 33554

The dashed part of the orbit path shows where the satellite is in the earth's shadow,  

DLR